Ames, IA

6:00 PM CDT on June 25, 2017 (GMT -0500)
Ames Municipal

Weather History for KAMW - September, 2013

Change the Weather History Date:

Tuesday, September 17, 2013

  Actual Average Record
Temperature  
Mean Temperature 58 °F 62 °F  
Max Temperature 65 °F 75 °F 93 °F (2000)
Min Temperature 51 °F 49 °F 37 °F (1999)
Degree Days  
Heating Degree Days 7 4  
Month to date heating degree days 32 43  
Since 1 July heating degree days 46 59  
Cooling Degree Days 0 2  
Month to date cooling degree days 108 46  
Year to date cooling degree days 857 729  
Growing Degree Days 7 (Base 50)    
Moisture  
Dew Point 55 °F    
Average Humidity 89    
Maximum Humidity 100    
Minimum Humidity 77    
Precipitation  
Precipitation 0.47 in 0.12 in 0.75 in (2006)
Month to date precipitation 0.83 1.90  
Sea Level Pressure  
Sea Level Pressure 30.11 in    
Wind  
Wind Speed 8 mph (SE)    
Max Wind Speed 14 mph    
Max Gust Speed 20 mph    
Visibility 4 miles    
Events Rain    
T = Trace of Precipitation, MM = Missing Value Source: NWS Daily Summary

Daily Weather History Graph

Daily Weather History Graph

Search for Another Location

Airport or City:

Trip Planner

Search our weather history database for the weather conditions in past years. The results will help you decide how hot, cold, wet, or windy it might be!

Date:

Astronomy

Sep. 17, 2013 Rise Set
Actual Time 6:56 AM CDT 7:20 PM CDT
Civil Twilight 6:28 AM CDT 7:47 PM CDT
Nautical Twilight 5:56 AM CDT 8:20 PM CDT
Astronomical Twilight 5:22 AM CDT 8:54 PM CDT
Moon 6:08 PM CDT (9/17) 4:50 AM CDT (9/17)
Length of Visible Light 13h 18m
Length of Day
12h 23m
Waxing Gibbous, 96% of the Moon is Illuminated
Sep 17
Waxing Gibbous
Sep 19
Full
Sep 26
Last Quarter
Oct 4
New
Oct 11
First Quarter

Hourly Weather History & Observations

Time (CDT) Temp. Dew Point Humidity Pressure Visibility Wind Dir Wind Speed Gust Speed Precip Events Conditions
12:53 AM 51.1 °F 48.9 °F 92% 30.25 in 10.0 mi Calm Calm - N/A   Clear
1:53 AM 52.0 °F 48.9 °F 89% 30.25 in 10.0 mi Calm Calm - N/A   Clear
2:53 AM 53.1 °F 48.9 °F 86% 30.23 in 10.0 mi SE 3.5 mph - N/A   Clear
3:53 AM 54.0 °F 48.9 °F 83% 30.22 in 10.0 mi SE 4.6 mph - N/A   Clear
4:53 AM 55.0 °F 48.9 °F 80% 30.20 in 10.0 mi SE 9.2 mph - N/A   Scattered Clouds
5:53 AM 54.0 °F 48.9 °F 83% 30.21 in 10.0 mi SSE 6.9 mph - N/A   Mostly Cloudy
6:53 AM 53.1 °F 51.1 °F 93% 30.21 in 4.0 mi SE 6.9 mph - 0.12 in Rain Rain
7:27 AM 53.6 °F 51.8 °F 94% 30.20 in 3.0 mi ESE 8.1 mph - 0.15 in Rain Rain
7:45 AM 53.6 °F 51.8 °F 94% 30.21 in 3.0 mi South 6.9 mph - 0.24 in Rain Rain
7:53 AM 53.1 °F 51.1 °F 93% 30.20 in 2.5 mi SE 6.9 mph - 0.26 in Rain Rain
8:14 AM 53.6 °F 51.8 °F 94% 30.20 in 3.0 mi SSE 6.9 mph - 0.03 in Rain Light Rain
8:53 AM 53.1 °F 52.0 °F 96% 30.19 in 3.0 mi SE 5.8 mph - 0.04 in   Overcast
9:02 AM 53.6 °F 51.8 °F 94% 30.19 in 2.0 mi SE 6.9 mph - 0.01 in Rain Light Rain
9:49 AM 53.6 °F 53.6 °F 100% 30.19 in 1.5 mi SE 8.1 mph - 0.02 in Rain Light Rain
9:53 AM 54.0 °F 53.1 °F 97% 30.19 in 1.2 mi SE 10.4 mph - 0.03 in Rain Light Rain
10:34 AM 53.6 °F 53.6 °F 100% 30.18 in 2.0 mi SE 9.2 mph - 0.02 in Rain Light Rain
10:53 AM 55.0 °F 53.1 °F 93% 30.17 in 2.0 mi SE 9.2 mph - 0.02 in   Overcast
11:25 AM 55.4 °F 53.6 °F 94% 30.16 in 3.0 mi ESE 9.2 mph - N/A   Overcast
11:53 AM 55.0 °F 54.0 °F 96% 30.15 in 4.0 mi SE 8.1 mph - N/A   Overcast
12:31 PM 55.4 °F 55.4 °F 100% 30.14 in 2.0 mi SE 9.2 mph - N/A   Overcast
12:42 PM 55.4 °F 55.4 °F 100% 30.13 in 4.0 mi SSE 10.4 mph - N/A   Overcast
12:53 PM 55.9 °F 55.0 °F 97% 30.13 in 4.0 mi SE 10.4 mph - N/A   Overcast
1:53 PM 57.0 °F 55.0 °F 93% 30.10 in 3.0 mi SSE 11.5 mph - N/A   Overcast
2:53 PM 57.9 °F 55.9 °F 93% 30.07 in 4.0 mi SSE 9.2 mph - N/A   Overcast
3:53 PM 59.0 °F 57.0 °F 93% 30.05 in 3.0 mi SSE 10.4 mph - N/A   Overcast
4:34 PM 60.8 °F 57.2 °F 88% 30.04 in 2.0 mi SE 11.5 mph - N/A   Overcast
4:53 PM 60.1 °F 57.9 °F 93% 30.03 in 2.5 mi SE 8.1 mph - N/A   Overcast
5:13 PM 60.8 °F 59.0 °F 94% 30.03 in 3.0 mi SE 12.7 mph 18.4 mph N/A   Overcast
5:53 PM 61.0 °F 59.0 °F 93% 30.01 in 4.0 mi SE 11.5 mph 18.4 mph N/A   Overcast
6:53 PM 61.0 °F 60.1 °F 97% 29.99 in 3.0 mi SE 6.9 mph - N/A   Overcast
7:07 PM 60.8 °F 60.8 °F 100% 30.00 in 2.5 mi SE 11.5 mph - N/A   Overcast
7:44 PM 60.8 °F 60.8 °F 100% 30.00 in 1.5 mi SSE 6.9 mph - N/A   Overcast
7:53 PM 61.0 °F 60.1 °F 97% 30.00 in 1.2 mi SSE 8.1 mph - N/A   Overcast
8:53 PM 61.0 °F 60.1 °F 97% 29.99 in 1.2 mi SE 10.4 mph - N/A   Overcast
9:53 PM 62.1 °F 61.0 °F 96% 29.99 in 1.2 mi SSE 10.4 mph 18.4 mph N/A   Overcast
10:31 PM 62.6 °F 62.6 °F 100% 30.00 in 2.5 mi SSE 8.1 mph - N/A   Overcast
10:53 PM 63.0 °F 62.1 °F 97% 29.99 in 3.0 mi SSE 6.9 mph - N/A   Overcast
11:05 PM 62.6 °F 62.6 °F 100% 30.00 in 3.0 mi SSE 8.1 mph - N/A   Overcast
11:53 PM 64.0 °F 63.0 °F 96% 29.99 in 4.0 mi SSE 9.2 mph - N/A   Overcast